When you browse on this site, cookies collect data to enhance your experience and personalize the content and advertising you see.
Visit our Privacy Policy to learn more. By continuing to use the site, you agree to this use of cookies and data.
  • In Hungary
  • List of Countries
  • For 7 days
  • Water Temperature
  • Satellite Maps
  • Weather Map
  • News
  • Weather Widgets
  • user-avatar
    Login

    Hourly Weather Varna

    Today, 18 November, Sunday

    Time Temperature Precipitation Wind Pressure Humidity
    00:00 -3°C° 0.1 mm 7 mps 756 mmHg 84%
    01:00 -3°C° 0.1 mm 7 mps 756 mmHg 84%
    02:00 -3°C° 0.1 mm 6 mps 756 mmHg 85%
    03:00 -3°C° 0 mm 6 mps 755 mmHg 86%
    04:00 -3°C° 0 mm 6 mps 755 mmHg 86%
    05:00 -3°C° 0 mm 6 mps 755 mmHg 87%
    06:00 -3°C° 0 mm 6 mps 755 mmHg 87%
    07:00 -3°C° 0 mm 6 mps 754 mmHg 87%
    08:00 -3°C° 0 mm 6 mps 754 mmHg 87%
    09:00 -1°C° 0 mm 6 mps 754 mmHg 84%
    10:00 +1°C° 0 mm 5 mps 754 mmHg 80%
    11:00 +2°C° 0 mm 5 mps 754 mmHg 77%
    12:00 +3°C° 0 mm 5 mps 753 mmHg 77%
    13:00 +3°C° 0 mm 5 mps 752 mmHg 77%
    14:00 +4°C° 0 mm 6 mps 752 mmHg 77%
    15:00 +4°C° 0.1 mm 6 mps 751 mmHg 80%
    16:00 +3°C° 0.1 mm 6 mps 750 mmHg 83%
    17:00 +3°C° 0.1 mm 7 mps 750 mmHg 86%
    18:00 +3°C° 0.4 mm 7 mps 749 mmHg 86%
    19:00 +4°C° 0.4 mm 7 mps 749 mmHg 86%
    20:00 +4°C° 0.4 mm 8 mps 748 mmHg 87%
    21:00 +5°C° 0.7 mm 8 mps 748 mmHg 87%
    22:00 +5°C° 0.7 mm 8 mps 747 mmHg 88%
    23:00 +5°C° 0.7 mm 8 mps 747 mmHg 88%

    Tomorrow, 19 November, Monday

    Time Temperature Precipitation Wind Pressure Humidity
    00:00 +5°C° 1.1 mm 9 mps 746 mmHg 88%
    01:00 +5°C° 1.1 mm 9 mps 745 mmHg 89%
    02:00 +5°C° 1.1 mm 9 mps 745 mmHg 89%
    03:00 +5°C° 2.5 mm 9 mps 744 mmHg 90%
    04:00 +5°C° 2.5 mm 9 mps 743 mmHg 91%
    05:00 +5°C° 2.5 mm 9 mps 742 mmHg 91%
    06:00 +5°C° 2.5 mm 9 mps 742 mmHg 91%
    07:00 +5°C° 2.5 mm 8 mps 742 mmHg 91%
    08:00 +5°C° 2.5 mm 8 mps 742 mmHg 90%
    09:00 +5°C° 0.3 mm 7 mps 742 mmHg 90%
    10:00 +5°C° 0.3 mm 7 mps 742 mmHg 89%
    11:00 +5°C° 0.3 mm 6 mps 742 mmHg 88%
    12:00 +5°C° 0 mm 7 mps 742 mmHg 87%
    13:00 +4°C° 0 mm 8 mps 743 mmHg 85%
    14:00 +2°C° 0 mm 9 mps 743 mmHg 83%
    15:00 +2°C° 0 mm 8 mps 744 mmHg 84%
    16:00 +1°C° 0 mm 8 mps 744 mmHg 84%
    17:00 0°C° 0 mm 8 mps 745 mmHg 84%
    18:00 0°C° 0 mm 7 mps 746 mmHg 85%
    19:00 0°C° 0 mm 7 mps 747 mmHg 85%
    20:00 0°C° 0 mm 7 mps 748 mmHg 85%
    21:00 -1°C° 0 mm 7 mps 749 mmHg 86%
    22:00 -1°C° 0 mm 6 mps 749 mmHg 86%
    23:00 -1°C° 0 mm 6 mps 750 mmHg 87%

    Day after tomorrow, 20 November, Tuesday

    Time Temperature Precipitation Wind Pressure Humidity
    00:00 0°C° 0 mm 5 mps 750 mmHg 88%
    01:00 0°C° 0 mm 5 mps 751 mmHg 89%
    02:00 -1°C° 0 mm 4 mps 751 mmHg 89%
    03:00 -1°C° 0 mm 4 mps 751 mmHg 90%
    04:00 -1°C° 0 mm 4 mps 751 mmHg 90%
    05:00 -1°C° 0 mm 3 mps 751 mmHg 91%
    06:00 -1°C° 0 mm 3 mps 752 mmHg 88%
    07:00 0°C° 0 mm 3 mps 752 mmHg 86%
    08:00 +1°C° 0 mm 2 mps 752 mmHg 83%
    09:00 +2°C° 0 mm 2 mps 752 mmHg 78%
    10:00 +3°C° 0 mm 2 mps 752 mmHg 72%
    11:00 +5°C° 0 mm 2 mps 752 mmHg 67%
    12:00 +4°C° 0 mm 3 mps 752 mmHg 68%
    13:00 +5°C° 0 mm 3 mps 751 mmHg 69%
    14:00 +7°C° 0 mm 3 mps 751 mmHg 70%
    15:00 +6°C° 0 mm 4 mps 751 mmHg 75%
    16:00 +5°C° 0 mm 4 mps 750 mmHg 80%
    17:00 +5°C° 0 mm 4 mps 750 mmHg 85%
    18:00 +5°C° 0.1 mm 4 mps 750 mmHg 87%
    19:00 +6°C° 0.1 mm 5 mps 750 mmHg 88%
    20:00 +6°C° 0.1 mm 5 mps 749 mmHg 90%
    21:00 +7°C° 0.3 mm 5 mps 749 mmHg 91%
    22:00 +7°C° 0.3 mm 5 mps 749 mmHg 92%
    23:00 +7°C° 0.3 mm 6 mps 749 mmHg 93%

    21 November, Wednesday

    Time Temperature Precipitation Wind Pressure Humidity
    00:00 +8°C° 0.3 mm 6 mps 748 mmHg 94%
    01:00 +8°C° 0.3 mm 5 mps 748 mmHg 95%
    02:00 +9°C° 0.3 mm 5 mps 747 mmHg 96%
    03:00 +9°C° 0.3 mm 5 mps 746 mmHg 96%
    04:00 +9°C° 0.3 mm 5 mps 746 mmHg 96%
    05:00 +10°C° 0.3 mm 5 mps 745 mmHg 97%
    06:00 +10°C° 0.7 mm 6 mps 745 mmHg 97%
    07:00 +10°C° 0.7 mm 6 mps 745 mmHg 97%
    08:00 +10°C° 0.7 mm 6 mps 744 mmHg 97%
    09:00 +11°C° 1.6 mm 6 mps 744 mmHg 97%
    10:00 +11°C° 1.6 mm 6 mps 744 mmHg 97%
    11:00 +12°C° 1.6 mm 5 mps 743 mmHg 97%
    12:00 +12°C° 2 mm 5 mps 743 mmHg 97%
    13:00 +12°C° 2 mm 5 mps 742 mmHg 97%
    14:00 +12°C° 2 mm 5 mps 742 mmHg 97%
    15:00 +12°C° 0.7 mm 5 mps 742 mmHg 97%
    16:00 +12°C° 0.7 mm 4 mps 742 mmHg 97%
    17:00 +12°C° 0.7 mm 4 mps 742 mmHg 97%
    18:00 +12°C° 0.3 mm 4 mps 742 mmHg 96%
    19:00 +11°C° 0.3 mm 4 mps 742 mmHg 94%
    20:00 +11°C° 0.3 mm 4 mps 742 mmHg 93%
    21:00 +11°C° 0.1 mm 4 mps 743 mmHg 93%
    22:00 +9°C° 0.1 mm 5 mps 743 mmHg 93%
    23:00 +9°C° 0.1 mm 6 mps 744 mmHg 93%

    22 November, Thursday

    Time Temperature Precipitation Wind Pressure Humidity
    00:00 +9°C° 0.1 mm 6 mps 744 mmHg 92%
    01:00 +9°C° 0.1 mm 7 mps 744 mmHg 92%
    02:00 +9°C° 0.1 mm 7 mps 744 mmHg 91%
    03:00 +7°C° 0.1 mm 8 mps 745 mmHg 90%
    04:00 +6°C° 0.1 mm 9 mps 745 mmHg 89%
    05:00 +5°C° 0.1 mm 9 mps 746 mmHg 88%
    06:00 +5°C° 0.1 mm 9 mps 746 mmHg 88%
    07:00 +3°C° 0.1 mm 9 mps 747 mmHg 87%
    08:00 +2°C° 0.1 mm 9 mps 748 mmHg 87%
    09:00 +2°C° 0.2 mm 9 mps 748 mmHg 86%
    10:00 +2°C° 0.2 mm 8 mps 749 mmHg 86%
    11:00 +2°C° 0.2 mm 8 mps 749 mmHg 85%
    12:00 +2°C° 0.1 mm 8 mps 750 mmHg 84%
    13:00 +3°C° 0.1 mm 7 mps 750 mmHg 82%
    14:00 +4°C° 0.1 mm 7 mps 750 mmHg 81%
    15:00 +3°C° 0.1 mm 7 mps 751 mmHg 81%
    16:00 +3°C° 0.1 mm 6 mps 751 mmHg 81%
    17:00 +3°C° 0.1 mm 6 mps 752 mmHg 82%
    18:00 +3°C° 0.1 mm 6 mps 752 mmHg 82%
    19:00 +2°C° 0.1 mm 6 mps 752 mmHg 83%
    20:00 +2°C° 0.1 mm 6 mps 753 mmHg 84%
    21:00 +2°C° 0 mm 5 mps 753 mmHg 84%
    22:00 +2°C° 0 mm 5 mps 753 mmHg 85%
    23:00 +2°C° 0 mm 5 mps 753 mmHg 86%

    23 November, Friday

    Time Temperature Precipitation Wind Pressure Humidity
    00:00 +1°C° 0 mm 5 mps 754 mmHg 87%
    01:00 +1°C° 0 mm 5 mps 754 mmHg 88%
    02:00 +1°C° 0 mm 5 mps 754 mmHg 89%
    03:00 +1°C° 0 mm 5 mps 754 mmHg 89%
    04:00 +1°C° 0 mm 5 mps 754 mmHg 88%
    05:00 +1°C° 0 mm 5 mps 754 mmHg 88%
    06:00 +1°C° 0 mm 5 mps 755 mmHg 87%
    07:00 +1°C° 0 mm 5 mps 755 mmHg 87%
    08:00 +1°C° 0 mm 5 mps 755 mmHg 86%
    09:00 +2°C° 0 mm 5 mps 756 mmHg 81%
    10:00 +4°C° 0 mm 4 mps 756 mmHg 77%
    11:00 +5°C° 0 mm 4 mps 756 mmHg 72%
    12:00 +5°C° 0 mm 4 mps 756 mmHg 69%
    13:00 +6°C° 0 mm 4 mps 756 mmHg 65%
    14:00 +6°C° 0 mm 4 mps 756 mmHg 61%
    15:00 +6°C° 0 mm 4 mps 756 mmHg 64%
    16:00 +5°C° 0 mm 4 mps 756 mmHg 66%
    17:00 +4°C° 0 mm 4 mps 756 mmHg 69%
    18:00 +4°C° 0 mm 4 mps 756 mmHg 70%
    19:00 +3°C° 0 mm 4 mps 756 mmHg 72%
    20:00 +3°C° 0 mm 3 mps 756 mmHg 73%
    21:00 +2°C° 0 mm 3 mps 756 mmHg 75%
    22:00 +2°C° 0 mm 3 mps 756 mmHg 77%
    23:00 +2°C° 0 mm 3 mps 756 mmHg 78%
    Show more